When you browse on this site, cookies collect data to enhance your experience and personalize the content and advertising you see.
Visit our Privacy Policy to learn more. By continuing to use the site, you agree to this use of cookies and data.
  • En España
  • Lista de países
  • Para 7 días
  • Temperatura del agua
  • El tiempo en el mapa
  • Informadores
  • user-avatar
    Iniciar sesión

    Tiempo cada hora Ankona

    Hoy, 21 Agosto, Miércoles

    Tiempo Temperatura Precipitaciones Viento Presión Humedad
    00:00 +26°C° 0 mm 2 mps 758 mmHg 50%
    01:00 +25°C° 0 mm 1 mps 758 mmHg 49%
    02:00 +25°C° 0 mm 1 mps 758 mmHg 49%
    03:00 +25°C° 0 mm 1 mps 758 mmHg 49%
    04:00 +25°C° 0 mm 1 mps 758 mmHg 49%
    05:00 +26°C° 0 mm 1 mps 758 mmHg 46%
    06:00 +27°C° 0 mm 1 mps 758 mmHg 43%
    07:00 +28°C° 0 mm 1 mps 758 mmHg 40%
    08:00 +30°C° 0 mm 2 mps 758 mmHg 37%
    09:00 +32°C° 0 mm 2 mps 759 mmHg 35%
    10:00 +35°C° 0 mm 3 mps 759 mmHg 32%
    11:00 +35°C° 0 mm 3 mps 759 mmHg 33%
    12:00 +35°C° 0 mm 4 mps 758 mmHg 34%
    13:00 +36°C° 0 mm 4 mps 758 mmHg 35%
    14:00 +35°C° 0 mm 4 mps 758 mmHg 36%
    15:00 +35°C° 0 mm 4 mps 758 mmHg 36%
    16:00 +34°C° 0 mm 3 mps 758 mmHg 37%
    17:00 +31°C° 0 mm 3 mps 758 mmHg 44%
    18:00 +29°C° 0 mm 3 mps 758 mmHg 52%
    19:00 +28°C° 0 mm 2 mps 758 mmHg 59%
    20:00 +27°C° 0 mm 2 mps 759 mmHg 63%
    21:00 +26°C° 0 mm 2 mps 759 mmHg 66%
    22:00 +26°C° 0 mm 1 mps 759 mmHg 70%
    23:00 +25°C° 0 mm 2 mps 759 mmHg 71%

    Mañana, 22 Agosto, Jueves

    Tiempo Temperatura Precipitaciones Viento Presión Humedad
    00:00 +25°C° 0 mm 2 mps 759 mmHg 73%
    01:00 +24°C° 0 mm 2 mps 759 mmHg 75%
    02:00 +24°C° 0 mm 2 mps 759 mmHg 77%
    03:00 +24°C° 0 mm 2 mps 759 mmHg 80%
    04:00 +24°C° 0 mm 2 mps 759 mmHg 83%
    05:00 +25°C° 0 mm 2 mps 759 mmHg 79%
    06:00 +26°C° 0 mm 1 mps 759 mmHg 76%
    07:00 +26°C° 0 mm 1 mps 760 mmHg 73%
    08:00 +28°C° 0 mm 2 mps 760 mmHg 65%
    09:00 +30°C° 0 mm 2 mps 760 mmHg 58%
    10:00 +33°C° 0 mm 3 mps 760 mmHg 51%
    11:00 +33°C° 0 mm 3 mps 760 mmHg 50%
    12:00 +33°C° 0 mm 4 mps 759 mmHg 50%
    13:00 +33°C° 0 mm 5 mps 759 mmHg 49%
    14:00 +33°C° 0.1 mm 4 mps 759 mmHg 52%
    15:00 +32°C° 0.1 mm 4 mps 759 mmHg 54%
    16:00 +30°C° 0.1 mm 3 mps 759 mmHg 57%
    17:00 +29°C° 0.1 mm 3 mps 759 mmHg 63%
    18:00 +27°C° 0.1 mm 2 mps 759 mmHg 68%
    19:00 +25°C° 0.1 mm 2 mps 759 mmHg 74%
    20:00 +25°C° 0 mm 2 mps 759 mmHg 77%
    21:00 +25°C° 0 mm 3 mps 760 mmHg 79%
    22:00 +24°C° 0 mm 3 mps 760 mmHg 81%
    23:00 +24°C° 0 mm 3 mps 760 mmHg 81%

    Pasado mañana, 23 Agosto, Viernes

    Tiempo Temperatura Precipitaciones Viento Presión Humedad
    00:00 +24°C° 0 mm 3 mps 760 mmHg 81%
    01:00 +24°C° 0 mm 2 mps 759 mmHg 80%
    02:00 +24°C° 0 mm 2 mps 759 mmHg 80%
    03:00 +24°C° 0 mm 3 mps 759 mmHg 80%
    04:00 +22°C° 0 mm 3 mps 759 mmHg 80%
    05:00 +24°C° 0 mm 3 mps 759 mmHg 79%
    06:00 +25°C° 0 mm 3 mps 759 mmHg 77%
    07:00 +25°C° 0 mm 3 mps 759 mmHg 75%
    08:00 +26°C° 0.1 mm 4 mps 760 mmHg 75%
    09:00 +27°C° 0.1 mm 5 mps 760 mmHg 74%
    10:00 +27°C° 0.1 mm 6 mps 760 mmHg 74%
    11:00 +29°C° 0 mm 6 mps 760 mmHg 66%
    12:00 +30°C° 0 mm 6 mps 760 mmHg 58%
    13:00 +32°C° 0 mm 6 mps 760 mmHg 50%
    14:00 +30°C° 0.2 mm 5 mps 759 mmHg 55%
    15:00 +29°C° 0.2 mm 4 mps 759 mmHg 60%
    16:00 +28°C° 0.2 mm 3 mps 759 mmHg 65%
    17:00 +27°C° 0 mm 2 mps 759 mmHg 67%
    18:00 +26°C° 0 mm 2 mps 759 mmHg 68%
    19:00 +25°C° 0 mm 2 mps 760 mmHg 70%
    20:00 +24°C° 0 mm 1 mps 760 mmHg 70%
    21:00 +24°C° 0 mm 1 mps 760 mmHg 70%
    22:00 +23°C° 0 mm 1 mps 760 mmHg 70%
    23:00 +23°C° 0 mm 1 mps 759 mmHg 71%

    24 Agosto, Sábado

    Tiempo Temperatura Precipitaciones Viento Presión Humedad
    00:00 +23°C° 0 mm 1 mps 759 mmHg 71%
    01:00 +22°C° 0 mm 1 mps 759 mmHg 72%
    02:00 +22°C° 0 mm 1 mps 759 mmHg 72%
    03:00 +21°C° 0 mm 2 mps 759 mmHg 72%
    04:00 +21°C° 0 mm 2 mps 758 mmHg 72%
    05:00 +23°C° 0 mm 2 mps 758 mmHg 68%
    06:00 +24°C° 0 mm 2 mps 759 mmHg 63%
    07:00 +25°C° 0 mm 3 mps 759 mmHg 58%
    08:00 +27°C° 0 mm 3 mps 759 mmHg 53%
    09:00 +29°C° 0 mm 3 mps 759 mmHg 48%
    10:00 +33°C° 0 mm 3 mps 759 mmHg 42%
    11:00 +33°C° 0 mm 3 mps 759 mmHg 42%
    12:00 +34°C° 0 mm 3 mps 758 mmHg 42%
    13:00 +35°C° 0 mm 4 mps 758 mmHg 42%
    14:00 +34°C° 0 mm 3 mps 758 mmHg 45%
    15:00 +33°C° 0 mm 3 mps 758 mmHg 47%
    16:00 +32°C° 0 mm 2 mps 758 mmHg 50%
    17:00 +29°C° 0.2 mm 2 mps 758 mmHg 57%
    18:00 +27°C° 0.2 mm 2 mps 758 mmHg 63%
    19:00 +24°C° 0.2 mm 2 mps 758 mmHg 70%
    20:00 +24°C° 0 mm 2 mps 758 mmHg 71%
    21:00 +24°C° 0 mm 2 mps 758 mmHg 71%
    22:00 +23°C° 0 mm 1 mps 758 mmHg 71%
    23:00 +23°C° 0 mm 2 mps 758 mmHg 70%

    25 Agosto, Domingo

    Tiempo Temperatura Precipitaciones Viento Presión Humedad
    00:00 +23°C° 0 mm 2 mps 758 mmHg 68%
    01:00 +23°C° 0 mm 2 mps 758 mmHg 67%
    02:00 +23°C° 0 mm 2 mps 758 mmHg 66%
    03:00 +23°C° 0 mm 2 mps 757 mmHg 65%
    04:00 +23°C° 0 mm 2 mps 757 mmHg 64%
    05:00 +24°C° 0 mm 2 mps 757 mmHg 61%
    06:00 +25°C° 0 mm 2 mps 758 mmHg 59%
    07:00 +26°C° 0 mm 2 mps 758 mmHg 56%
    08:00 +28°C° 0 mm 3 mps 758 mmHg 52%
    09:00 +30°C° 0 mm 3 mps 758 mmHg 47%
    10:00 +33°C° 0 mm 3 mps 758 mmHg 43%
    11:00 +33°C° 0 mm 4 mps 758 mmHg 44%
    12:00 +34°C° 0 mm 4 mps 758 mmHg 44%
    13:00 +34°C° 0 mm 4 mps 758 mmHg 44%
    14:00 +34°C° 0 mm 4 mps 757 mmHg 46%
    15:00 +33°C° 0 mm 3 mps 757 mmHg 47%
    16:00 +33°C° 0 mm 3 mps 757 mmHg 48%
    17:00 +30°C° 0 mm 2 mps 757 mmHg 54%
    18:00 +28°C° 0 mm 1 mps 757 mmHg 61%
    19:00 +27°C° 0 mm 1 mps 757 mmHg 67%
    20:00 +26°C° 0 mm 1 mps 757 mmHg 69%
    21:00 +26°C° 0 mm 1 mps 757 mmHg 70%
    22:00 +25°C° 0 mm 1 mps 758 mmHg 72%
    23:00 +25°C° 0 mm 1 mps 758 mmHg 71%

    26 Agosto, Lunes

    Tiempo Temperatura Precipitaciones Viento Presión Humedad
    00:00 +25°C° 0 mm 1 mps 757 mmHg 71%
    01:00 +24°C° 0 mm 1 mps 757 mmHg 71%
    02:00 +24°C° 0 mm 1 mps 757 mmHg 71%
    03:00 +24°C° 0 mm 2 mps 757 mmHg 71%
    04:00 +24°C° 0 mm 2 mps 757 mmHg 70%
    05:00 +25°C° 0 mm 3 mps 757 mmHg 66%
    06:00 +26°C° 0 mm 3 mps 758 mmHg 62%
    07:00 +27°C° 0 mm 3 mps 758 mmHg 58%
    08:00 +29°C° 0 mm 4 mps 758 mmHg 52%
    09:00 +32°C° 0 mm 4 mps 758 mmHg 46%
    10:00 +34°C° 0 mm 4 mps 758 mmHg 41%
    11:00 +34°C° 0 mm 5 mps 758 mmHg 40%
    12:00 +35°C° 0 mm 5 mps 758 mmHg 39%
    13:00 +35°C° 0 mm 5 mps 758 mmHg 38%
    14:00 +35°C° 0 mm 5 mps 758 mmHg 40%
    15:00 +35°C° 0 mm 4 mps 758 mmHg 42%
    16:00 +34°C° 0 mm 4 mps 757 mmHg 44%
    17:00 +31°C° 0 mm 3 mps 757 mmHg 50%
    18:00 +29°C° 0 mm 2 mps 757 mmHg 56%
    19:00 +27°C° 0 mm 1 mps 757 mmHg 62%
    20:00 +27°C° 0 mm 1 mps 758 mmHg 64%
    21:00 +26°C° 0 mm 1 mps 758 mmHg 66%
    22:00 +25°C° 0 mm 1 mps 758 mmHg 67%
    23:00 +25°C° 0 mm 1 mps 758 mmHg 66%
    Mostrar más